Regional Weather Roundup
Issued by NWS

Home | Current Version | Previous Version | Text Only | Print | Product List | Glossary Off
Versions: 1 2 3 4 5 6 7 8 9 10 11 12 13 14 15 16 17 18 19 20 21 22 23 24 25 26 27 28 29 30 31 32 33 34 35 36 37 38 39 40 41 42 43 44 45 46 47 48 49 50

000
ASUS45 KCYS 191710
RWRWY

WYOMING REGIONAL WEATHER ROUNDUP
NATIONAL WEATHER SERVICE CHEYENNE WY
1100 AM MDT SUN OCT 19 2014

NOTE:  "FAIR" INDICATES FEW OR NO CLOUDS BELOW 12,000 FEET
WITH NO SIGNIFICANT WEATHER AND/OR OBSTRUCTIONS TO VISIBILITY.

WYZ001-191800-
YELLOWSTONE NATIONAL PARK

CITY           SKY/WX    TMP DP  RH WIND       PRES   REMARKS
LK YELLOWSTONE   N/A     42  35  76 VRB3      30.28S
W YELLOWSTONE  NOT AVBL

$$
WYZ002>013-054>058-071-098>099-191800-
NORTHERN WYOMING

CITY           SKY/WX    TMP DP  RH WIND       PRES   REMARKS
JACKSON        SUNNY     43  32  65 CALM      30.25F
CODY           SUNNY    N/A N/A N/A SW3       30.11F
GREYBULL       SUNNY     52  32  46 VRB3      30.12F
WORLAND        SUNNY     56  36  47 VRB3      30.12F
SHERIDAN       SUNNY     65  36  34 N5        30.09F
BUFFALO        SUNNY     63  34  33 S12       30.14F
GILLETTE       SUNNY     63  36  36 CALM      30.12S
HULETT         FAIR      59  37  44 CALM      30.12
NEWCASTLE      FAIR      61  36  39 MISG      30.11

$$
WYZ014>020-022>026-101>103-191800-
CENTRAL WYOMING

CITY           SKY/WX    TMP DP  RH WIND       PRES   REMARKS
BIG PINEY      SUNNY     49  30  48 CALM      30.25F
PINEDALE       SUNNY     52  30  43 CALM      30.25F
DUBOIS         FAIR      50  23  34 CALM      30.23F
LANDER         SUNNY     57  35  43 SE5       30.16F
RIVERTON       SUNNY     53  34  48 VRB3      30.18S
CASPER         SUNNY     59  31  34 W9        30.17S
DOUGLAS        SUNNY     61  35  37 NW6       30.16F

$$
WYZ021-027>030-104>119-191800-
SOUTHERN WYOMING

CITY           SKY/WX    TMP DP  RH WIND       PRES   REMARKS
EVANSTON       MOSUNNY   52  31  44 NW3       30.24S
KEMMERER       SUNNY     55  30  38 CALM      30.25S
FORT BRIDGER   FAIR      51  31  47 CALM      30.27S
ROCK SPRINGS   SUNNY     51  30  44 E3        30.23S
DIXON          FAIR      58  31  36 CALM      30.24F
RAWLINS        SUNNY     55  28  35 CALM      30.23F
SARATOGA       FAIR      59  30  33 SE7       30.24F
LARAMIE        SUNNY     58  30  34 N5        30.23S
CHEYENNE       SUNNY     65  29  25 N10G20    30.17S
TORRINGTON     SUNNY     63  40  42 NW7       30.11S
PINE BLUFFS    FAIR      64  32  29 N12       30.14S

$$



USA.gov is the U.S. government's official web portal to all federal, state and local government web resources and services.